Miscellaneous Local Product
Issued by NWS North Platte, NE

Home | Current Version | Previous Version | Graphics & Text | Print | Product List | Glossary On
Versions: 1 2 3 4 5 6 7 8 9 10 11 12 13 14 15 16 17 18 19 20 21 22 23 24 25 26 27 28 29 30 31 32 33 34 35 36 37 38 39 40 41 42 43 44 45 46 47 48 49 50
000
AXUS43 KLBF 180010
MISLBF


WESTERN AND NORTH CENTRAL NEBRASKA HOURLY WEATHER ROUNDUP
NATIONAL WEATHER SERVICE NORTH PLATTE NE
700 PM CDT TUE OCT 17 2017

NOTE: "FAIR" INDICATES FEW OR NO CLOUDS BELOW 12,000 FEET WITH NO
SIGNIFICANT WEATHER AND/OR OBSTRUCTIONS TO VISIBILITY.

NOTE: STATIONS NOT REPORTING VARIABLES SUCH AS SKY/WEATHER OR
PRESSURE ARE PROVIDED BY RAWS AND APRS NETWORKS AND ARE NOT UNDER
NATIONAL WEATHER SERVICE QUALITY CONTROL.

...OBSERVATIONS IN AND NEAR THE EASTERN PANHANDLE OF NEBRASKA...

CITY           SKY/WX    TMP DP  RH WIND       PRES   REMARKS
PINE RIDGE     CLEAR     67  24  19 S6        29.90F
GORDON         FAIR      65  28  25 SW6       29.92F
CHADRON        CLEAR     69  18  14 W8        29.90S
ALLIANCE       CLEAR     60  21  22 SW9       29.96S
SIDNEY         CLEAR     63  17  17 SW7       30.02F HAZE
$$

...OBSERVATIONS IN NORTHERN NEBRASKA AND FAR SOUTHERN SOUTH DAKOTA...

CITY           SKY/WX    TMP DP  RH WIND       PRES   REMARKS
WINNER         FAIR      70  40  33 S12       29.86F
VALENTINE      CLEAR     67  28  23 SW6       29.89F
THEDFORD       CLEAR     68  27  21 S8        29.95F
AINSWORTH      CLEAR     63  35  36 S8        29.92S
O`NEILL        PTCLDY    66  43  44 S7        29.93S
ORD            CLEAR     64  37  36 CALM      29.95S
BROKEN BOW     CLEAR     63  43  48 CALM      29.96S
VALENTINE NWR    N/A     75  21  13 SW6G13      N/A
HALSEY           N/A     75  23  14 S3G13       N/A
BUTTE            N/A     69  39  34 SE8         N/A
CHAMBERS         N/A     65  37  35 CALM        N/A
EWING            N/A     66  39  37 CALM        N/A
$$

...OBSERVATIONS IN SOUTHWEST NEBRASKA AND FAR NORTHEAST COLORADO...

CITY           SKY/WX    TMP DP  RH WIND       PRES   REMARKS
WRAY           FAIR      72  19  14 SE7       30.01F
HOLYOKE        FAIR      72  25  17 S6        30.01S
IMPERIAL       CLEAR     66  22  18 S7        29.99F
OGALLALA       CLEAR     71  24  17 SW6       29.97S
NORTH PLATTE   CLEAR     69  31  24 S9        29.96S
MCCOOK         CLEAR     72  32  23 S6        29.99F
LEXINGTON      CLEAR     65  37  34 S9        29.98F
STAPLETON        N/A     66  32  27 CALM        N/A
GOTHENBURG       N/A     79  29  16 S5          N/A
CALLAWAY         N/A     74  34  23 S6          N/A
$$

...OBSERVATIONS IN CENTRAL LINCOLN COUNTY AREA...

CITY           SKY/WX    TMP DP  RH WIND       PRES   REMARKS
N.P. AIRPORT   CLEAR     69  31  24 S9        29.96S
N.P. DOWNTOWN    N/A     69  33  26 CALM        N/A
N.P. SOUTHEAST   N/A     70  31  23 S3          N/A
N.P. HILLCREST   N/A     70  31  23 S9          N/A
$$

...SOME OBSERVATIONS FROM AROUND THE REGION...

CITY           SKY/WX    TMP DP  RH WIND       PRES   REMARKS
DENVER         CLOUDY    70  20  15 SE3       30.09F
LIMON          CLOUDY    64  22  20 S5        30.12S
ASPEN          CLEAR     57   9  14 NW5       30.30R
LARAMIE        CLEAR     60  15  17 W14       30.18S
CASPER         CLOUDY    61  16  17 W13       30.02S
CHEYENNE       CLEAR     66  15  14 W9        30.12S
SCOTTSBLUFF    CLEAR     67  21  17 W7        29.97F
GRAND ISLAND   CLEAR     67  42  40 S7        29.98S
OMAHA          PTCLDY    63  46  54 SE7       29.99F
SIOUX FALLS    PTCLDY    65  43  44 S8        29.91F
PIERRE         CLEAR     67  37  33 SE7       29.81F
RAPID CITY     CLEAR     66  26  22 W7        29.84S
BISMARCK       CLOUDY    71  27  19 SW8       29.71F
KANSAS CITY    PTCLDY    59  48  67 S9        30.07S
HILL CITY      CLEAR     71  37  28 S6        30.00F
WICHITA        PTCLDY    65  47  52 S12       30.06R
DODGE CITY     CLEAR     69  38  32 S12       30.02F
OKLAHOMA CITY  PTCLDY    62  45  53 S8        30.10F
DALLAS         PTCLDY    69  41  36 SE7       30.13S
AMARILLO       CLEAR     70  38  31 S10       30.07S
$$




USA.gov is the U.S. government's official web portal to all federal, state and local government web resources and services.